Year,Month,Day,Hour,Minute,Value (Times are PST for insolation in W/m^2)
2012,10,01,00,00,0.00
2012,10,01,00,01,0.00
2012,10,01,00,02,0.00
2012,10,01,00,03,0.00
2012,10,01,00,04,0.00
2012,10,01,00,05,0.00
2012,10,01,00,06,0.00
2012,10,01,00,07,0.00
2012,10,01,00,08,0.00
2012,10,01,00,09,0.00
2012,10,01,00,10,0.00
2012,10,01,00,11,0.00
2012,10,01,00,12,0.00
2012,10,01,00,13,0.00
2012,10,01,00,14,0.00
2012,10,01,00,15,0.00
2012,10,01,00,16,0.00
2012,10,01,00,17,0.00
2012,10,01,00,18,0.00
2012,10,01,00,19,0.00
2012,10,01,00,20,0.00
2012,10,01,00,21,0.00
2012,10,01,00,22,0.00
2012,10,01,00,23,0.00
2012,10,01,00,24,0.00
2012,10,01,00,25,0.00
2012,10,01,00,26,0.00
2012,10,01,00,27,0.00
2012,10,01,00,28,0.00
2012,10,01,00,29,0.00
2012,10,01,00,30,0.00
2012,10,01,00,31,0.00
2012,10,01,00,32,0.00
2012,10,01,00,33,0.00
2012,10,01,00,34,0.00
2012,10,01,00,35,0.00
2012,10,01,00,36,0.00
2012,10,01,00,37,0.00
2012,10,01,00,38,0.00
2012,10,01,00,39,0.00
2012,10,01,00,40,0.00
2012,10,01,00,41,0.00
2012,10,01,00,42,0.00
2012,10,01,00,43,0.00
2012,10,01,00,44,0.00
2012,10,01,00,45,0.00
2012,10,01,00,46,0.00
2012,10,01,00,47,0.00
2012,10,01,00,48,0.00
2012,10,01,00,49,0.00
2012,10,01,00,50,0.00
2012,10,01,00,51,0.00
2012,10,01,00,52,0.00
2012,10,01,00,53,0.00
2012,10,01,00,54,0.00
2012,10,01,00,55,0.00
2012,10,01,00,56,0.00
2012,10,01,00,57,0.00
2012,10,01,00,58,0.00
2012,10,01,00,59,0.00
2012,10,01,01,00,0.00
2012,10,01,01,01,0.00
2012,10,01,01,02,0.00
2012,10,01,01,03,0.00
2012,10,01,01,04,0.00
2012,10,01,01,05,0.00
2012,10,01,01,06,0.00
2012,10,01,01,07,0.00
2012,10,01,01,08,0.00
2012,10,01,01,09,0.00
2012,10,01,01,10,0.00
2012,10,01,01,11,0.00
2012,10,01,01,12,0.00
2012,10,01,01,13,0.00
2012,10,01,01,14,0.00
2012,10,01,01,15,0.00
2012,10,01,01,16,0.00
2012,10,01,01,17,0.00
2012,10,01,01,18,0.00
2012,10,01,01,19,0.00
2012,10,01,01,20,0.00
2012,10,01,01,21,0.00
2012,10,01,01,22,0.00
2012,10,01,01,23,0.00
2012,10,01,01,24,0.00
2012,10,01,01,25,0.00
2012,10,01,01,26,0.00
2012,10,01,01,27,0.00
2012,10,01,01,28,0.00
2012,10,01,01,29,0.00
2012,10,01,01,30,0.00
2012,10,01,01,31,0.00
2012,10,01,01,32,0.00
2012,10,01,01,33,0.00
2012,10,01,01,34,0.00
2012,10,01,01,35,0.00
2012,10,01,01,36,0.00
2012,10,01,01,37,0.00
2012,10,01,01,38,0.00
2012,10,01,01,39,0.00
2012,10,01,01,40,0.00
2012,10,01,01,41,0.00
2012,10,01,01,42,0.00
2012,10,01,01,43,0.00
2012,10,01,01,44,0.00
2012,10,01,01,45,0.00
2012,10,01,01,46,0.00
2012,10,01,01,47,0.00
2012,10,01,01,48,0.00
2012,10,01,01,49,0.00
2012,10,01,01,50,0.00
2012,10,01,01,51,0.00
2012,10,01,01,52,0.00
2012,10,01,01,53,0.00
2012,10,01,01,54,0.00
2012,10,01,01,55,0.00
2012,10,01,01,56,0.00
2012,10,01,01,57,0.00
2012,10,01,01,58,0.00
2012,10,01,01,59,0.00
2012,10,01,02,00,0.00
2012,10,01,02,01,0.00
2012,10,01,02,02,0.00
2012,10,01,02,03,0.00
2012,10,01,02,04,0.00
2012,10,01,02,05,0.00
2012,10,01,02,06,0.00
2012,10,01,02,07,0.00
2012,10,01,02,08,0.00
2012,10,01,02,09,0.00
2012,10,01,02,10,0.00
2012,10,01,02,11,0.00
2012,10,01,02,12,0.00
2012,10,01,02,13,0.00
2012,10,01,02,14,0.00
2012,10,01,02,15,0.00
2012,10,01,02,16,0.00
2012,10,01,02,17,0.00
2012,10,01,02,18,0.00
2012,10,01,02,19,0.00
2012,10,01,02,20,0.00
2012,10,01,02,21,0.00
2012,10,01,02,22,0.00
2012,10,01,02,23,0.00
2012,10,01,02,24,0.00
2012,10,01,02,25,0.00
2012,10,01,02,26,0.00
2012,10,01,02,27,0.00
2012,10,01,02,28,0.00
2012,10,01,02,29,0.00
2012,10,01,02,30,0.00
2012,10,01,02,31,0.00
2012,10,01,02,32,0.00
2012,10,01,02,33,0.00
2012,10,01,02,34,0.00
2012,10,01,02,35,0.00
2012,10,01,02,36,0.00
2012,10,01,02,37,0.00
2012,10,01,02,38,0.00
2012,10,01,02,39,0.00
2012,10,01,02,40,0.00
2012,10,01,02,41,0.00
2012,10,01,02,42,0.00
2012,10,01,02,43,0.00
2012,10,01,02,44,0.00
2012,10,01,02,45,0.00
2012,10,01,02,46,0.00
2012,10,01,02,47,0.00
2012,10,01,02,48,0.00
2012,10,01,02,49,0.00
2012,10,01,02,50,0.00
2012,10,01,02,51,0.00
2012,10,01,02,52,0.00
2012,10,01,02,53,0.00
2012,10,01,02,54,0.00
2012,10,01,02,55,0.00
2012,10,01,02,56,0.00
2012,10,01,02,57,0.00
2012,10,01,02,58,0.00
2012,10,01,02,59,0.00
2012,10,01,03,00,0.00
2012,10,01,03,01,0.00
2012,10,01,03,02,0.00
2012,10,01,03,03,0.00
2012,10,01,03,04,0.00
2012,10,01,03,05,0.00
2012,10,01,03,06,0.00
2012,10,01,03,07,0.00
2012,10,01,03,08,0.00
2012,10,01,03,09,0.00
2012,10,01,03,10,0.00
2012,10,01,03,11,0.00
2012,10,01,03,12,0.00
2012,10,01,03,13,0.00
2012,10,01,03,14,0.00
2012,10,01,03,15,0.00
2012,10,01,03,16,0.00
2012,10,01,03,17,0.00
2012,10,01,03,18,0.00
2012,10,01,03,19,0.00
2012,10,01,03,20,0.00
2012,10,01,03,21,0.00
2012,10,01,03,22,0.00
2012,10,01,03,23,0.00
2012,10,01,03,24,0.00
2012,10,01,03,25,0.00
2012,10,01,03,26,0.00
2012,10,01,03,27,0.00
2012,10,01,03,28,0.00
2012,10,01,03,29,0.00
2012,10,01,03,30,0.00
2012,10,01,03,31,0.00
2012,10,01,03,32,0.00
2012,10,01,03,33,0.00
2012,10,01,03,34,0.00
2012,10,01,03,35,0.00
2012,10,01,03,36,0.00
2012,10,01,03,37,0.00
2012,10,01,03,38,0.00
2012,10,01,03,39,0.00
2012,10,01,03,40,0.00
2012,10,01,03,41,0.00
2012,10,01,03,42,0.00
2012,10,01,03,43,0.00
2012,10,01,03,44,0.00
2012,10,01,03,45,0.00
2012,10,01,03,46,0.00
2012,10,01,03,47,0.00
2012,10,01,03,48,0.00
2012,10,01,03,49,0.00
2012,10,01,03,50,0.00
2012,10,01,03,51,0.00
2012,10,01,03,52,0.00
2012,10,01,03,53,0.00
2012,10,01,03,54,0.00
2012,10,01,03,55,0.00
2012,10,01,03,56,0.00
2012,10,01,03,57,0.00
2012,10,01,03,58,0.00
2012,10,01,03,59,0.00
2012,10,01,04,00,0.00
2012,10,01,04,01,0.00
2012,10,01,04,02,0.00
2012,10,01,04,03,0.00
2012,10,01,04,04,0.00
2012,10,01,04,05,0.00
2012,10,01,04,06,0.00
2012,10,01,04,07,0.00
2012,10,01,04,08,0.00
2012,10,01,04,09,0.00
2012,10,01,04,10,0.00
2012,10,01,04,11,0.00
2012,10,01,04,12,0.00
2012,10,01,04,13,0.00
2012,10,01,04,14,0.00
2012,10,01,04,15,0.00
2012,10,01,04,16,0.00
2012,10,01,04,17,0.00
2012,10,01,04,18,0.00
2012,10,01,04,19,0.00
2012,10,01,04,20,0.00
2012,10,01,04,21,0.00
2012,10,01,04,22,0.00
2012,10,01,04,23,0.00
2012,10,01,04,24,0.00
2012,10,01,04,25,0.00
2012,10,01,04,26,0.00
2012,10,01,04,27,0.00
2012,10,01,04,28,0.00
2012,10,01,04,29,0.00
2012,10,01,04,30,0.00
2012,10,01,04,31,0.00
2012,10,01,04,32,0.00
2012,10,01,04,33,0.00
2012,10,01,04,34,0.00
2012,10,01,04,35,0.00
2012,10,01,04,36,0.00
2012,10,01,04,37,0.00
2012,10,01,04,38,0.00
2012,10,01,04,39,0.00
2012,10,01,04,40,0.00
2012,10,01,04,41,0.00
2012,10,01,04,42,0.00
2012,10,01,04,43,0.00
2012,10,01,04,44,0.00
2012,10,01,04,45,0.00
2012,10,01,04,46,0.00
2012,10,01,04,47,0.00
2012,10,01,04,48,0.00
2012,10,01,04,49,0.00
2012,10,01,04,50,0.00
2012,10,01,04,51,0.00
2012,10,01,04,52,0.00
2012,10,01,04,53,0.00
2012,10,01,04,54,0.00
2012,10,01,04,55,0.00
2012,10,01,04,56,0.00
2012,10,01,04,57,0.00
2012,10,01,04,58,0.00
2012,10,01,04,59,0.00
2012,10,01,05,00,0.00
2012,10,01,05,01,0.00
2012,10,01,05,02,0.00
2012,10,01,05,03,0.00
2012,10,01,05,04,0.00
2012,10,01,05,05,0.00
2012,10,01,05,06,0.00
2012,10,01,05,07,0.00
2012,10,01,05,08,0.00
2012,10,01,05,09,0.00
2012,10,01,05,10,0.00
2012,10,01,05,11,0.00
2012,10,01,05,12,0.00
2012,10,01,05,13,0.00
2012,10,01,05,14,0.00
2012,10,01,05,15,0.00
2012,10,01,05,16,0.00
2012,10,01,05,17,0.00
2012,10,01,05,18,0.00
2012,10,01,05,19,0.00
2012,10,01,05,20,0.00
2012,10,01,05,21,0.00
2012,10,01,05,22,0.00
2012,10,01,05,23,0.00
2012,10,01,05,24,0.00
2012,10,01,05,25,0.00
2012,10,01,05,26,0.00
2012,10,01,05,27,0.00
2012,10,01,05,28,0.00
2012,10,01,05,29,0.00
2012,10,01,05,30,0.00
2012,10,01,05,31,0.00
2012,10,01,05,32,0.00
2012,10,01,05,33,0.00
2012,10,01,05,34,0.00
2012,10,01,05,35,0.00
2012,10,01,05,36,0.00
2012,10,01,05,37,0.00
2012,10,01,05,38,0.00
2012,10,01,05,39,0.00
2012,10,01,05,40,0.00
2012,10,01,05,41,0.00
2012,10,01,05,42,0.00
2012,10,01,05,43,0.00
2012,10,01,05,44,0.00
2012,10,01,05,45,0.00
2012,10,01,05,46,0.00
2012,10,01,05,47,0.00
2012,10,01,05,48,0.00
2012,10,01,05,49,0.00
2012,10,01,05,50,0.00
2012,10,01,05,51,0.00
2012,10,01,05,52,0.00
2012,10,01,05,53,0.00
2012,10,01,05,54,0.00
2012,10,01,05,55,0.00
2012,10,01,05,56,0.00
2012,10,01,05,57,0.00
2012,10,01,05,58,0.00
2012,10,01,05,59,0.00
2012,10,01,06,00,0.00
2012,10,01,06,01,0.00
2012,10,01,06,02,0.00
2012,10,01,06,03,0.00
2012,10,01,06,04,0.00
2012,10,01,06,05,0.00
2012,10,01,06,06,0.00
2012,10,01,06,07,0.00
2012,10,01,06,08,0.00
2012,10,01,06,09,0.00
2012,10,01,06,10,0.00
2012,10,01,06,11,0.00
2012,10,01,06,12,0.00
2012,10,01,06,13,0.00
2012,10,01,06,14,0.00
2012,10,01,06,15,0.00
2012,10,01,06,16,0.00
2012,10,01,06,17,0.00
2012,10,01,06,18,0.00
2012,10,01,06,19,0.00
2012,10,01,06,20,0.00
2012,10,01,06,21,0.00
2012,10,01,06,22,0.00
2012,10,01,06,23,0.00
2012,10,01,06,24,0.00
2012,10,01,06,25,0.00
2012,10,01,06,26,0.00
2012,10,01,06,27,0.00
2012,10,01,06,28,0.00
2012,10,01,06,29,0.00
2012,10,01,06,30,0.00
2012,10,01,06,31,0.00
2012,10,01,06,32,0.00
2012,10,01,06,33,0.00
2012,10,01,06,34,0.00
2012,10,01,06,35,0.00
2012,10,01,06,36,0.00
2012,10,01,06,37,0.00
2012,10,01,06,38,0.00
2012,10,01,06,39,0.00
2012,10,01,06,40,0.00
2012,10,01,06,41,0.00
2012,10,01,06,42,0.00
2012,10,01,06,43,0.00
2012,10,01,06,44,0.00
2012,10,01,06,45,0.00
2012,10,01,06,46,0.00
2012,10,01,06,47,0.00
2012,10,01,06,48,0.00
2012,10,01,06,49,0.00
2012,10,01,06,50,0.00
2012,10,01,06,51,0.00
2012,10,01,06,52,0.00
2012,10,01,06,53,0.00
2012,10,01,06,54,0.00
2012,10,01,06,55,0.00
2012,10,01,06,56,0.00
2012,10,01,06,57,0.00
2012,10,01,06,58,0.00
2012,10,01,06,59,0.00
2012,10,01,07,00,0.00
2012,10,01,07,01,0.00
2012,10,01,07,02,0.00
2012,10,01,07,03,0.00
2012,10,01,07,04,0.00
2012,10,01,07,05,0.00
2012,10,01,07,06,0.00
2012,10,01,07,07,0.00
2012,10,01,07,08,0.00
2012,10,01,07,09,0.00
2012,10,01,07,10,0.00
2012,10,01,07,11,0.00
2012,10,01,07,12,0.00
2012,10,01,07,13,0.00
2012,10,01,07,14,0.00
2012,10,01,07,15,0.00
2012,10,01,07,16,0.00
2012,10,01,07,17,0.00
2012,10,01,07,18,0.00
2012,10,01,07,19,0.00
2012,10,01,07,20,0.00
2012,10,01,07,21,2.80
2012,10,01,07,22,5.00
2012,10,01,07,23,5.00
2012,10,01,07,24,5.00
2012,10,01,07,25,5.60
2012,10,01,07,26,7.00
2012,10,01,07,27,7.00
2012,10,01,07,28,7.00
2012,10,01,07,29,7.00
2012,10,01,07,30,7.30
2012,10,01,07,31,9.00
2012,10,01,07,32,10.00
2012,10,01,07,33,11.00
2012,10,01,07,34,11.00
2012,10,01,07,35,11.00
2012,10,01,07,36,12.00
2012,10,01,07,37,12.00
2012,10,01,07,38,12.00
2012,10,01,07,39,12.00
2012,10,01,07,40,13.60
2012,10,01,07,41,14.00
2012,10,01,07,42,14.00
2012,10,01,07,43,14.00
2012,10,01,07,44,15.10
2012,10,01,07,45,16.00
2012,10,01,07,46,16.00
2012,10,01,07,47,16.00
2012,10,01,07,48,16.50
2012,10,01,07,49,18.00
2012,10,01,07,50,18.00
2012,10,01,07,51,18.00
2012,10,01,07,52,18.00
2012,10,01,07,53,19.00
2012,10,01,07,54,19.00
2012,10,01,07,55,19.00
2012,10,01,07,56,20.10
2012,10,01,07,57,21.00
2012,10,01,07,58,21.00
2012,10,01,07,59,21.30
2012,10,01,08,00,23.00
2012,10,01,08,01,23.90
2012,10,01,08,02,25.60
2012,10,01,08,03,29.10
2012,10,01,08,04,32.60
2012,10,01,08,05,31.40
2012,10,01,08,06,26.50
2012,10,01,08,07,23.00
2012,10,01,08,08,24.60
2012,10,01,08,09,26.00
2012,10,01,08,10,29.70
2012,10,01,08,11,31.30
2012,10,01,08,12,28.00
2012,10,01,08,13,29.00
2012,10,01,08,14,30.00
2012,10,01,08,15,30.00
2012,10,01,08,16,30.20
2012,10,01,08,17,32.20
2012,10,01,08,18,35.10
2012,10,01,08,19,41.50
2012,10,01,08,20,48.70
2012,10,01,08,21,55.00
2012,10,01,08,22,55.70
2012,10,01,08,23,78.00
2012,10,01,08,24,101.80
2012,10,01,08,25,109.00
2012,10,01,08,26,102.90
2012,10,01,08,27,104.00
2012,10,01,08,28,113.30
2012,10,01,08,29,121.50
2012,10,01,08,30,124.70
2012,10,01,08,31,127.50
2012,10,01,08,32,130.80
2012,10,01,08,33,133.70
2012,10,01,08,34,135.20
2012,10,01,08,35,138.00
2012,10,01,08,36,141.00
2012,10,01,08,37,141.60
2012,10,01,08,38,146.20
2012,10,01,08,39,150.60
2012,10,01,08,40,156.50
2012,10,01,08,41,141.90
2012,10,01,08,42,106.70
2012,10,01,08,43,81.80
2012,10,01,08,44,49.20
2012,10,01,08,45,46.10
2012,10,01,08,46,46.00
2012,10,01,08,47,46.90
2012,10,01,08,48,52.00
2012,10,01,08,49,57.20
2012,10,01,08,50,58.00
2012,10,01,08,51,58.50
2012,10,01,08,52,80.10
2012,10,01,08,53,147.90
2012,10,01,08,54,194.40
2012,10,01,08,55,214.30
2012,10,01,08,56,225.00
2012,10,01,08,57,196.30
2012,10,01,08,58,216.00
2012,10,01,08,59,186.80
2012,10,01,09,00,116.00
2012,10,01,09,01,100.00
2012,10,01,09,02,180.00
2012,10,01,09,03,229.70
2012,10,01,09,04,227.50
2012,10,01,09,05,170.60
2012,10,01,09,06,100.00
2012,10,01,09,07,143.00
2012,10,01,09,08,229.00
2012,10,01,09,09,248.70
2012,10,01,09,10,258.40
2012,10,01,09,11,264.00
2012,10,01,09,12,273.00
2012,10,01,09,13,280.10
2012,10,01,09,14,291.70
2012,10,01,09,15,302.50
2012,10,01,09,16,310.50
2012,10,01,09,17,314.20
2012,10,01,09,18,273.20
2012,10,01,09,19,179.50
2012,10,01,09,20,158.00
2012,10,01,09,21,146.40
2012,10,01,09,22,169.70
2012,10,01,09,23,220.00
2012,10,01,09,24,293.80
2012,10,01,09,25,347.90
2012,10,01,09,26,356.00
2012,10,01,09,27,363.00
2012,10,01,09,28,364.10
2012,10,01,09,29,356.00
2012,10,01,09,30,375.00
2012,10,01,09,31,393.90
2012,10,01,09,32,392.60
2012,10,01,09,33,424.00
2012,10,01,09,34,383.40
2012,10,01,09,35,300.40
2012,10,01,09,36,287.50
2012,10,01,09,37,243.00
2012,10,01,09,38,210.90
2012,10,01,09,39,216.20
2012,10,01,09,40,232.90
2012,10,01,09,41,240.90
2012,10,01,09,42,243.00
2012,10,01,09,43,248.50
2012,10,01,09,44,260.20
2012,10,01,09,45,273.80
2012,10,01,09,46,280.30
2012,10,01,09,47,272.70
2012,10,01,09,48,252.00
2012,10,01,09,49,225.00
2012,10,01,09,50,211.60
2012,10,01,09,51,212.50
2012,10,01,09,52,207.40
2012,10,01,09,53,199.40
2012,10,01,09,54,207.70
2012,10,01,09,55,231.60
2012,10,01,09,56,241.00
2012,10,01,09,57,245.60
2012,10,01,09,58,265.20
2012,10,01,09,59,277.00
2012,10,01,10,00,276.60
2012,10,01,10,01,274.30
2012,10,01,10,02,267.60
2012,10,01,10,03,259.20
2012,10,01,10,04,257.20
2012,10,01,10,05,238.20
2012,10,01,10,06,210.50
2012,10,01,10,07,200.50
2012,10,01,10,08,192.50
2012,10,01,10,09,197.60
2012,10,01,10,10,203.10
2012,10,01,10,11,202.00
2012,10,01,10,12,203.50
2012,10,01,10,13,202.10
2012,10,01,10,14,199.00
2012,10,01,10,15,197.60
2012,10,01,10,16,195.00
2012,10,01,10,17,193.80
2012,10,01,10,18,197.60
2012,10,01,10,19,199.10
2012,10,01,10,20,205.40
2012,10,01,10,21,225.70
2012,10,01,10,22,220.00
2012,10,01,10,23,233.10
2012,10,01,10,24,226.00
2012,10,01,10,25,205.80
2012,10,01,10,26,209.00
2012,10,01,10,27,214.10
2012,10,01,10,28,223.00
2012,10,01,10,29,278.30
2012,10,01,10,30,306.00
2012,10,01,10,31,289.00
2012,10,01,10,32,276.00
2012,10,01,10,33,232.20
2012,10,01,10,34,233.30
2012,10,01,10,35,212.50
2012,10,01,10,36,214.00
2012,10,01,10,37,214.00
2012,10,01,10,38,221.80
2012,10,01,10,39,223.70
2012,10,01,10,40,205.00
2012,10,01,10,41,216.00
2012,10,01,10,42,216.00
2012,10,01,10,43,239.50
2012,10,01,10,44,396.00
2012,10,01,10,45,319.90
2012,10,01,10,46,227.40
2012,10,01,10,47,245.30
2012,10,01,10,48,327.40
2012,10,01,10,49,371.70
2012,10,01,10,50,471.00
2012,10,01,10,51,493.50
2012,10,01,10,52,535.10
2012,10,01,10,53,540.50
2012,10,01,10,54,489.40
2012,10,01,10,55,531.40
2012,10,01,10,56,502.30
2012,10,01,10,57,515.00
2012,10,01,10,58,507.00
2012,10,01,10,59,478.00
2012,10,01,11,00,326.90
2012,10,01,11,01,294.80
2012,10,01,11,02,305.00
2012,10,01,11,03,324.00
2012,10,01,11,04,325.00
2012,10,01,11,05,335.20
2012,10,01,11,06,332.70
2012,10,01,11,07,261.40
2012,10,01,11,08,257.00
2012,10,01,11,09,236.70
2012,10,01,11,10,216.30
2012,10,01,11,11,209.30
2012,10,01,11,12,203.20
2012,10,01,11,13,213.00
2012,10,01,11,14,213.00
2012,10,01,11,15,204.30
2012,10,01,11,16,189.30
2012,10,01,11,17,189.30
2012,10,01,11,18,170.10
2012,10,01,11,19,175.10
2012,10,01,11,20,192.90
2012,10,01,11,21,216.10
2012,10,01,11,22,269.40
2012,10,01,11,23,276.10
2012,10,01,11,24,369.00
2012,10,01,11,25,344.00
2012,10,01,11,26,305.00
2012,10,01,11,27,363.80
2012,10,01,11,28,420.30
2012,10,01,11,29,444.20
2012,10,01,11,30,350.00
2012,10,01,11,31,394.40
2012,10,01,11,32,496.00
2012,10,01,11,33,426.40
2012,10,01,11,34,312.00
2012,10,01,11,35,329.80
2012,10,01,11,36,313.30
2012,10,01,11,37,291.60
2012,10,01,11,38,267.90
2012,10,01,11,39,258.20
2012,10,01,11,40,255.30
2012,10,01,11,41,338.30
2012,10,01,11,42,380.00
2012,10,01,11,43,450.30
2012,10,01,11,44,582.00
2012,10,01,11,45,481.20
2012,10,01,11,46,427.00
2012,10,01,11,47,523.80
2012,10,01,11,48,584.90
2012,10,01,11,49,576.40
2012,10,01,11,50,586.00
2012,10,01,11,51,572.60
2012,10,01,11,52,520.10
2012,10,01,11,53,556.60
2012,10,01,11,54,568.00
2012,10,01,11,55,550.80
2012,10,01,11,56,571.70
2012,10,01,11,57,591.70
2012,10,01,11,58,606.30
2012,10,01,11,59,615.70
2012,10,01,12,00,597.80
2012,10,01,12,01,607.70
2012,10,01,12,02,618.20
2012,10,01,12,03,634.50
2012,10,01,12,04,636.50
2012,10,01,12,05,642.10
2012,10,01,12,06,654.00
2012,10,01,12,07,639.90
2012,10,01,12,08,592.50
2012,10,01,12,09,553.80
2012,10,01,12,10,565.40
2012,10,01,12,11,638.70
2012,10,01,12,12,657.70
2012,10,01,12,13,650.70
2012,10,01,12,14,649.60
2012,10,01,12,15,689.50
2012,10,01,12,16,697.70
2012,10,01,12,17,720.00
2012,10,01,12,18,738.50
2012,10,01,12,19,749.10
2012,10,01,12,20,736.80
2012,10,01,12,21,766.00
2012,10,01,12,22,704.70
2012,10,01,12,23,748.30
2012,10,01,12,24,732.10
2012,10,01,12,25,708.00
2012,10,01,12,26,708.00
2012,10,01,12,27,713.30
2012,10,01,12,28,768.60
2012,10,01,12,29,705.30
2012,10,01,12,30,726.20
2012,10,01,12,31,673.30
2012,10,01,12,32,596.40
2012,10,01,12,33,596.20
2012,10,01,12,34,685.20
2012,10,01,12,35,689.00
2012,10,01,12,36,689.00
2012,10,01,12,37,737.50
2012,10,01,12,38,830.10
2012,10,01,12,39,849.00
2012,10,01,12,40,849.00
2012,10,01,12,41,849.00
2012,10,01,12,42,849.00
2012,10,01,12,43,849.00
2012,10,01,12,44,893.10
2012,10,01,12,45,929.50
2012,10,01,12,46,896.00
2012,10,01,12,47,797.10
2012,10,01,12,48,571.00
2012,10,01,12,49,571.00
2012,10,01,12,50,571.00
2012,10,01,12,51,775.00
2012,10,01,12,52,765.00
2012,10,01,12,53,765.00
2012,10,01,12,54,765.00
2012,10,01,12,55,531.60
2012,10,01,12,56,359.10
2012,10,01,12,57,360.30
2012,10,01,12,58,396.80
2012,10,01,12,59,393.00
2012,10,01,13,00,443.00
2012,10,01,13,01,443.00
2012,10,01,13,02,417.20
2012,10,01,13,03,385.70
2012,10,01,13,04,383.00
2012,10,01,13,05,408.10
2012,10,01,13,06,424.20
2012,10,01,13,07,399.00
2012,10,01,13,08,452.30
2012,10,01,13,09,499.80
2012,10,01,13,10,786.00
2012,10,01,13,11,667.70
2012,10,01,13,12,473.70
2012,10,01,13,13,513.30
2012,10,01,13,14,492.10
2012,10,01,13,15,453.60
2012,10,01,13,16,452.00
2012,10,01,13,17,416.60
2012,10,01,13,18,363.40
2012,10,01,13,19,366.30
2012,10,01,13,20,384.00
2012,10,01,13,21,392.80
2012,10,01,13,22,379.60
2012,10,01,13,23,366.50
2012,10,01,13,24,366.50
2012,10,01,13,25,366.30
2012,10,01,13,26,353.90
2012,10,01,13,27,328.90
2012,10,01,13,28,320.20
2012,10,01,13,29,300.00
2012,10,01,13,30,260.00
2012,10,01,13,31,251.70
2012,10,01,13,32,251.30
2012,10,01,13,33,252.20
2012,10,01,13,34,264.00
2012,10,01,13,35,279.00
2012,10,01,13,36,289.20
2012,10,01,13,37,283.60
2012,10,01,13,38,297.30
2012,10,01,13,39,291.30
2012,10,01,13,40,282.50
2012,10,01,13,41,302.00
2012,10,01,13,42,356.80
2012,10,01,13,43,388.20
2012,10,01,13,44,357.70
2012,10,01,13,45,414.90
2012,10,01,13,46,397.30
2012,10,01,13,47,334.00
2012,10,01,13,48,463.40
2012,10,01,13,49,557.80
2012,10,01,13,50,547.80
2012,10,01,13,51,398.00
2012,10,01,13,52,399.40
2012,10,01,13,53,477.20
2012,10,01,13,54,487.60
2012,10,01,13,55,466.10
2012,10,01,13,56,469.70
2012,10,01,13,57,528.30
2012,10,01,13,58,526.00
2012,10,01,13,59,444.00
2012,10,01,14,00,362.00
2012,10,01,14,01,425.60
2012,10,01,14,02,508.90
2012,10,01,14,03,467.10
2012,10,01,14,04,526.00
2012,10,01,14,05,618.40
2012,10,01,14,06,694.00
2012,10,01,14,07,822.70
2012,10,01,14,08,831.00
2012,10,01,14,09,791.60
2012,10,01,14,10,696.00
2012,10,01,14,11,499.80
2012,10,01,14,12,305.20
2012,10,01,14,13,255.10
2012,10,01,14,14,233.80
2012,10,01,14,15,220.90
2012,10,01,14,16,217.00
2012,10,01,14,17,218.00
2012,10,01,14,18,214.90
2012,10,01,14,19,211.20
2012,10,01,14,20,204.40
2012,10,01,14,21,195.30
2012,10,01,14,22,189.10
2012,10,01,14,23,184.20
2012,10,01,14,24,181.50
2012,10,01,14,25,182.70
2012,10,01,14,26,182.00
2012,10,01,14,27,190.00
2012,10,01,14,28,208.00
2012,10,01,14,29,219.30
2012,10,01,14,30,223.90
2012,10,01,14,31,234.40
2012,10,01,14,32,249.50
2012,10,01,14,33,252.60
2012,10,01,14,34,251.50
2012,10,01,14,35,249.10
2012,10,01,14,36,303.20
2012,10,01,14,37,355.40
2012,10,01,14,38,357.00
2012,10,01,14,39,495.90
2012,10,01,14,40,677.90
2012,10,01,14,41,662.20
2012,10,01,14,42,685.30
2012,10,01,14,43,680.60
2012,10,01,14,44,683.10
2012,10,01,14,45,686.00
2012,10,01,14,46,664.70
2012,10,01,14,47,622.20
2012,10,01,14,48,565.80
2012,10,01,14,49,491.30
2012,10,01,14,50,496.30
2012,10,01,14,51,544.70
2012,10,01,14,52,568.10
2012,10,01,14,53,551.00
2012,10,01,14,54,543.60
2012,10,01,14,55,494.30
2012,10,01,14,56,496.00
2012,10,01,14,57,488.50
2012,10,01,14,58,480.80
2012,10,01,14,59,523.00
2012,10,01,15,00,522.50
2012,10,01,15,01,516.60
2012,10,01,15,02,513.30
2012,10,01,15,03,508.10
2012,10,01,15,04,504.20
2012,10,01,15,05,500.00
2012,10,01,15,06,495.70
2012,10,01,15,07,489.30
2012,10,01,15,08,487.00
2012,10,01,15,09,487.00
2012,10,01,15,10,487.00
2012,10,01,15,11,493.90
2012,10,01,15,12,501.20
2012,10,01,15,13,506.00
2012,10,01,15,14,508.10
2012,10,01,15,15,513.70
2012,10,01,15,16,513.70
2012,10,01,15,17,525.70
2012,10,01,15,18,520.20
2012,10,01,15,19,514.90
2012,10,01,15,20,506.00
2012,10,01,15,21,499.20
2012,10,01,15,22,493.20
2012,10,01,15,23,487.90
2012,10,01,15,24,482.50
2012,10,01,15,25,477.50
2012,10,01,15,26,474.00
2012,10,01,15,27,469.30
2012,10,01,15,28,466.60
2012,10,01,15,29,466.00
2012,10,01,15,30,467.50
2012,10,01,15,31,463.40
2012,10,01,15,32,461.50
2012,10,01,15,33,458.70
2012,10,01,15,34,458.50
2012,10,01,15,35,460.70
2012,10,01,15,36,462.00
2012,10,01,15,37,462.60
2012,10,01,15,38,464.00
2012,10,01,15,39,464.00
2012,10,01,15,40,464.00
2012,10,01,15,41,462.00
2012,10,01,15,42,456.40
2012,10,01,15,43,449.50
2012,10,01,15,44,440.00
2012,10,01,15,45,438.40
2012,10,01,15,46,436.40
2012,10,01,15,47,445.20
2012,10,01,15,48,447.60
2012,10,01,15,49,444.30
2012,10,01,15,50,442.00
2012,10,01,15,51,440.50
2012,10,01,15,52,438.20
2012,10,01,15,53,435.80
2012,10,01,15,54,431.10
2012,10,01,15,55,425.30
2012,10,01,15,56,420.10
2012,10,01,15,57,416.00
2012,10,01,15,58,413.50
2012,10,01,15,59,411.10
2012,10,01,16,00,409.80
2012,10,01,16,01,406.80
2012,10,01,16,02,406.90
2012,10,01,16,03,404.70
2012,10,01,16,04,398.00
2012,10,01,16,05,396.00
2012,10,01,16,06,394.40
2012,10,01,16,07,388.80
2012,10,01,16,08,385.90
2012,10,01,16,09,381.40
2012,10,01,16,10,375.00
2012,10,01,16,11,372.20
2012,10,01,16,12,366.10
2012,10,01,16,13,363.10
2012,10,01,16,14,360.20
2012,10,01,16,15,356.10
2012,10,01,16,16,355.00
2012,10,01,16,17,351.70
2012,10,01,16,18,348.30
2012,10,01,16,19,345.00
2012,10,01,16,20,342.70
2012,10,01,16,21,339.50
2012,10,01,16,22,337.90
2012,10,01,16,23,334.00
2012,10,01,16,24,332.30
2012,10,01,16,25,326.10
2012,10,01,16,26,321.10
2012,10,01,16,27,316.10
2012,10,01,16,28,313.10
2012,10,01,16,29,310.60
2012,10,01,16,30,308.60
2012,10,01,16,31,307.00
2012,10,01,16,32,304.70
2012,10,01,16,33,302.40
2012,10,01,16,34,299.10
2012,10,01,16,35,296.30
2012,10,01,16,36,292.60
2012,10,01,16,37,289.00
2012,10,01,16,38,286.00
2012,10,01,16,39,280.10
2012,10,01,16,40,271.00
2012,10,01,16,41,268.10
2012,10,01,16,42,272.80
2012,10,01,16,43,272.90
2012,10,01,16,44,269.90
2012,10,01,16,45,267.30
2012,10,01,16,46,264.70
2012,10,01,16,47,262.00
2012,10,01,16,48,262.00
2012,10,01,16,49,259.80
2012,10,01,16,50,258.00
2012,10,01,16,51,255.50
2012,10,01,16,52,252.70
2012,10,01,16,53,250.10
2012,10,01,16,54,246.30
2012,10,01,16,55,242.20
2012,10,01,16,56,239.50
2012,10,01,16,57,239.00
2012,10,01,16,58,235.70
2012,10,01,16,59,232.30
2012,10,01,17,00,229.00
2012,10,01,17,01,225.50
2012,10,01,17,02,223.00
2012,10,01,17,03,220.10
2012,10,01,17,04,215.70
2012,10,01,17,05,213.00
2012,10,01,17,06,210.00
2012,10,01,17,07,209.00
2012,10,01,17,08,206.80
2012,10,01,17,09,202.30
2012,10,01,17,10,201.40
2012,10,01,17,11,197.50
2012,10,01,17,12,194.00
2012,10,01,17,13,192.30
2012,10,01,17,14,190.50
2012,10,01,17,15,187.90
2012,10,01,17,16,184.50